KJ6MZH-1 Weather Reports


Display with metric or nautical units.
time (UTC)temp
F
wind
direction
speed
MPH
gust
MPH
rain 1hr
in
rain 24hr
in
rain mn
in
humidity
%
barometer
mb
20260906234407 99 225 3.0 3.0 0.00 0.00 0.00 27 1008.5
20260906232907 97 309 6.0 6.0 0.00 0.00 0.00 28 1008.7
20260906231407 93 214 2.0 5.0 0.00 0.00 0.00 28 1008.7
20260906225907 96 202 0.0 6.0 0.00 0.00 0.00 28 1008.7
20260906224407 97 288 7.0 8.0 0.00 0.00 0.00 27 1008.6
20260906222907 96 195 6.0 7.0 0.00 0.00 0.00 27 1008.8
20260906222107 96 195 6.0 7.0 0.00 0.00 0.00 27 1008.8
20260906221307 95 121 2.0 3.0 0.00 0.00 0.00 27 1009.0
20260906220507 96 260 2.0 3.0 0.00 0.00 0.00 27 1009.2
20260906215707 96 260 2.0 3.0 0.00 0.00 0.00 27 1009.2
20260906214907 98 266 3.0 6.0 0.00 0.00 0.00 26 1009.3
20260906214507 98 266 3.0 6.0 0.00 0.00 0.00 26 1009.3
20260906214107 97 329 3.0 3.0 0.00 0.00 0.00 26 1009.6
20260906213707 97 329 3.0 3.0 0.00 0.00 0.00 26 1009.6
20260906213307 97 329 3.0 3.0 0.00 0.00 0.00 26 1009.6
20260906212907 97 249 2.0 6.0 0.00 0.00 0.00 27 1009.8
20260906212507 97 249 2.0 6.0 0.00 0.00 0.00 27 1009.8
20260906212107 97 249 2.0 6.0 0.00 0.00 0.00 27 1009.8
20260906211907 97 249 2.0 6.0 0.00 0.00 0.00 27 1009.8
20260906211707 98 248 5.0 5.0 0.00 0.00 0.00 26 1009.8
20260906211507 98 248 5.0 5.0 0.00 0.00 0.00 26 1009.8
20260906211307 98 248 5.0 5.0 0.00 0.00 0.00 26 1009.8
20260906211107 98 248 5.0 5.0 0.00 0.00 0.00 26 1009.8
20260906210907 98 248 5.0 5.0 0.00 0.00 0.00 26 1009.8
20260906210707 98 248 5.0 5.0 0.00 0.00 0.00 26 1009.8
20260906210507 97 8 1.0 3.0 0.00 0.00 0.00 26 1010.0
20260906210307 97 8 1.0 3.0 0.00 0.00 0.00 26 1010.0
20260906210207 97 8 1.0 3.0 0.00 0.00 0.00 26 1010.0
20260906210107 97 8 1.0 3.0 0.00 0.00 0.00 26 1010.0
20260906210007 97 8 1.0 3.0 0.00 0.00 0.00 26 1010.0
20260906205906 97 8 1.0 3.0 0.00 0.00 0.00 26 1010.0
20260906205806 97 8 1.0 3.0 0.00 0.00 0.00 26 1010.0
20260906205707 97 8 1.0 3.0 0.00 0.00 0.00 26 1010.0
20260906204615 97 285 6.0 112.0 0.00 0.00 0.00 26 1010.2
20260906203115 97 336 6.0 6.0 0.00 0.00 0.00 26 1010.3
20260906201615 96 0 5.0 6.0 0.00 0.00 0.00 27 1010.6
20260906200115 95 226 5.0 6.0 0.00 0.00 0.00 27 1010.7
20260906194615 96 260 2.0 5.0 0.00 0.00 0.00 27 1010.8
20260906193115 94 269 3.0 3.0 0.00 0.00 0.00 28 1011.0
20260906191615 96 356 3.0 5.0 0.00 0.00 0.00 27 1011.3
20260906190115 93 338 2.0 2.0 0.00 0.00 0.00 29 1011.5
20260906184615 92 189 2.0 3.0 0.00 0.00 0.00 30 1011.6
20260906183115 93 243 3.0 3.0 0.00 0.00 0.00 29 1011.8
20260906181615 91 274 1.0 5.0 0.00 0.00 0.00 32 1012.0
20260906180115 92 282 1.0 5.0 0.00 0.00 0.00 33 1012.3
20260906174615 92 261 1.0 1.0 0.00 0.00 0.00 33 1012.5
20260906173115 90 245 0.0 1.0 0.00 0.00 0.00 34 1012.3
20260906171615 89 292 2.0 2.0 0.00 0.00 0.00 35 1012.5
20260906170115 89 255 5.0 5.0 0.00 0.00 0.00 36 1012.5
20260906164615 87 260 3.0 5.0 0.00 0.00 0.00 36 1012.6
20260906163115 86 263 1.0 5.0 0.00 0.00 0.00 38 1012.7
20260906161615 82 22 0.0 0.0 0.00 0.00 0.00 42 1012.6
20260906160115 80 333 0.0 0.0 0.00 0.00 0.00 43 1012.5
20260906154615 79 330 2.0 2.0 0.00 0.00 0.00 44 1012.5
20260906153115 79 282 0.0 1.0 0.00 0.00 0.00 44 1012.5
20260906151615 79 244 0.0 2.0 0.00 0.00 0.00 44 1012.5
20260906150115 79 330 2.0 2.0 0.00 0.00 0.00 44 1012.3
20260906144615 80 297 0.0 0.0 0.00 0.00 0.00 42 1012.3
20260906143115 80 189 0.0 0.0 0.00 0.00 0.00 44 1012.2
20260906141615 76 145 0.0 0.0 0.00 0.00 0.00 47 1012.2
20260906140115 71 263 23.0 78.0 0.00 0.00 0.00 54 1012.0
20260906134615 69 270 0.0 0.0 0.00 0.00 0.00 57 1011.8
20260906133115 68 112 0.0 0.0 0.00 0.00 0.00 57 1012.0
20260906131615 67 163 0.0 0.0 0.00 0.00 0.00 58 1011.8
20260906130115 67 152 0.0 0.0 0.00 0.00 0.00 57 1011.6
20260906124615 67 112 0.0 0.0 0.00 0.00 0.00 57 1011.6
20260906123115 68 221 0.0 0.0 0.00 0.00 0.00 56 1011.6
20260906121615 69 112 0.0 0.0 0.00 0.00 0.00 56 1011.5
20260906120114 69 112 0.0 0.0 0.00 0.00 0.00 57 1011.5
20260906114614 69 112 0.0 0.0 0.00 0.00 0.00 59 1011.6
20260906113114 69 135 0.0 0.0 0.00 0.00 0.00 59 1011.6
20260906111614 70 112 0.0 0.0 0.00 0.00 0.00 55 1011.6
20260906110114 71 225 0.0 0.0 0.00 0.00 0.00 54 1011.6
20260906104614 72 112 0.0 0.0 0.00 0.00 0.00 53 1011.6
20260906103114 72 112 0.0 0.0 0.00 0.00 0.00 53 1011.5
20260906101614 70 96 0.0 0.0 0.00 0.00 0.00 56 1011.6
20260906100114 70 135 0.0 0.0 0.00 0.00 0.00 58 1011.6
20260906094614 70 112 0.0 0.0 0.00 0.00 0.00 57 1011.3
20260906093114 71 158 0.0 0.0 0.00 0.00 0.00 58 1011.1
20260906091614 72 114 0.0 0.0 0.00 0.00 0.00 53 1011.1
20260906090114 71 112 0.0 0.0 0.00 0.00 0.00 55 1011.2
20260906084614 71 158 0.0 0.0 0.00 0.00 0.00 55 1011.2
20260906083114 71 112 0.0 0.0 0.00 0.00 0.00 56 1011.3
20260906081614 70 112 0.0 0.0 0.00 0.00 0.00 56 1011.5
20260906080114 70 112 0.0 0.0 0.00 0.00 0.00 56 1011.6
20260906074614 71 112 0.0 0.0 0.00 0.00 0.00 56 1011.6
20260906073114 71 112 0.0 0.0 0.00 0.00 0.00 54 1011.6
20260906071614 71 112 0.0 0.0 0.00 0.00 0.00 53 1011.6
20260906070114 71 99 0.0 0.0 0.00 0.00 0.00 54 1011.7
20260906064614 72 112 0.0 0.0 0.00 0.00 0.00 54 1011.7
20260906063114 73 114 0.0 0.0 0.00 0.00 0.00 54 1011.8
20260906061614 73 152 0.0 0.0 0.00 0.00 0.00 51 1011.5
20260906060114 74 130 0.0 0.0 0.00 0.00 0.00 49 1011.5
20260906054614 75 150 0.0 0.0 0.00 0.00 0.00 46 1011.5
20260906053114 76 187 2.0 2.0 0.00 0.00 0.00 45 1011.5
20260906051614 78 259 1.0 2.0 0.00 0.00 0.00 40 1011.2
20260906050114 79 324 0.0 1.0 0.00 0.00 0.00 40 1011.1
20260906044614 79 19 0.0 0.0 0.00 0.00 0.00 41 1011.1
20260906043114 79 20 0.0 0.0 0.00 0.00 0.00 41 1011.1
20260906041614 79 347 0.0 0.0 0.00 0.00 0.00 41 1011.3
20260906040114 79 42 0.0 0.0 0.00 0.00 0.00 41 1011.3
20260906034614 79 22 9.0 91.0 0.00 0.00 0.00 42 1011.2
20260906033814 80 35 0.0 0.0 0.00 0.00 0.00 42 1011.1
20260906033014 80 22 0.0 0.0 0.00 0.00 0.00 42 1010.8
20260906032214 80 22 0.0 0.0 0.00 0.00 0.00 42 1010.8
20260906031414 80 0 0.0 0.0 0.00 0.00 0.00 43 1010.7
20260906031014 80 0 0.0 0.0 0.00 0.00 0.00 43 1010.7
20260906030558 80 16 0.0 0.0 0.00 0.00 0.00 43 1010.5